[[{"header":{"parameterUnit":"m.s-1","parameterCategory":1,"la1":30.2991,"la2":30.254,"lo1":-89.0895,"lo2":-89.0444,"dy":0.0017,"dx":0.0017,"nx":28,"ny":28,"refTime":"2025-08-21T09:00:00:Z","depth":0,"parameterNumber":2,"parameterNumberName":"U-component_of_WINDS"},"data":[0,0,0,0,0,0,0,0,0,0,0,0,0,0,0,0,0,0,0,0,0,0,0,0,0,0,0,0,0,0,0,0,0,0,0,0,0,0,0,0,0,0,0,0,0,0,0,0,0,0,0,0,0,0,0,0,0,0,2.4632,2.4631,0,2.4506,2.4505,2.4503,2.4358,2.4355,2.4353,2.4351,2.4228,2.4227,2.4225,0,0,0,0,0,0,0,0,0,0,0,0,0,2.4751,2.475,2.4632,2.4631,2.4629,2.4507,2.4505,2.4503,2.4358,2.4355,2.4353,2.435,2.4228,2.4227,2.4225,0,0,0,0,0,0,0,0,0,0,0,0,0,2.467,2.4749,2.4633,2.4542,2.4532,2.4507,2.4505,2.4503,2.4359,2.4355,2.4352,2.4349,2.4229,2.4227,2.4225,2.428,0,0,2.4219,2.4219,0,0,0,0,0,0,0,0,2.4675,2.4666,2.4557,2.4548,2.4537,2.4444,2.4501,2.4428,2.4359,2.4425,2.4351,2.4347,2.4303,2.4295,2.4278,2.4274,2.4269,2.4219,2.4218,2.4217,2.4217,0,0,0,0,0,0,0,2.4681,2.4671,2.4583,2.4555,2.4544,2.4509,2.4494,2.4487,2.4384,2.4419,2.4408,2.4395,2.4297,2.4281,2.4275,2.4267,2.4219,2.4218,2.4217,2.4216,2.4299,2.4302,0,0,0,0,0,0,2.4699,2.4676,2.4587,2.4579,2.4599,2.4509,2.4492,2.4478,2.4384,2.4366,2.4398,2.4388,2.4285,2.4277,2.427,2.4325,2.4217,2.4216,2.4215,2.4296,2.43,2.4303,0,0,0,0,0,0,2.4703,2.4693,2.4592,2.4624,2.4609,2.4511,2.4495,2.4477,2.446,2.4368,2.4349,2.4399,2.4282,2.4272,2.4277,2.4318,2.4215,2.4213,2.4292,2.4297,2.4301,2.4438,0,0,0,0,0,0,2.4707,2.4695,2.4714,2.4626,2.4608,2.4601,2.4498,2.4477,2.4457,2.4443,2.4364,2.4348,2.4279,2.4281,2.4276,2.4314,2.4212,2.4288,2.4294,2.43,2.4429,2.4447,2.4462,0,0,0,0,0,2.4711,2.4759,2.4716,2.4706,2.4629,2.4603,2.4593,2.4511,2.4461,2.4479,2.4419,2.4351,2.4316,2.4283,2.4276,2.4314,2.4285,2.4292,2.4299,2.4422,2.4443,2.4462,0,0,0,0,0,0,2.4857,2.4746,2.4696,2.4717,2.4671,2.4579,2.46,2.4537,2.4505,2.4494,2.4395,2.4379,2.4395,2.4356,2.4321,2.4361,2.429,2.4296,2.4386,2.4405,2.4421,2.4429,2.421,0,0,0,0,0,2.4891,2.4878,2.4783,2.481,2.4789,2.4699,2.4685,2.4625,2.4574,2.4554,2.4494,2.4449,2.4426,2.4414,2.4389,2.4424,2.4403,2.4447,2.4463,2.4477,2.4483,2.4495,2.4512,2.4328,2.4328,2.4327,0,0,2.4962,2.49,2.4898,2.4838,2.4795,2.4783,2.4683,2.4677,2.4668,2.4553,2.4552,2.4508,2.445,2.447,2.4475,2.4437,2.453,2.4487,2.4498,2.4496,2.4505,2.4522,2.4538,2.4333,2.4332,2.4331,0,0,2.5085,2.5038,2.5053,2.5012,2.4947,2.4886,2.4891,2.4808,2.4773,2.4771,2.4684,2.4673,2.4638,2.4599,2.4575,2.4682,2.4617,2.4677,2.4762,2.4775,2.4789,2.4802,2.4837,2.4851,2.4684,2.4684,2.4685,0,2.5182,2.516,2.5071,2.5068,2.5043,2.4937,2.4952,2.4917,2.4849,2.4834,2.4793,2.4744,2.4699,2.4705,2.4731,2.4716,2.4717,2.4684,2.4794,2.4806,2.4816,2.4848,2.4862,2.4692,2.4691,2.469,2.4689,0,2.5281,2.5267,2.5288,2.5221,2.5199,2.5207,2.5118,2.5107,2.505,2.4994,2.4993,2.4934,2.4893,2.4891,2.4837,2.489,2.4868,2.4812,2.4738,2.4842,2.4871,2.4883,2.4702,2.47,2.4698,2.4696,0,0,2.549,2.5372,2.5381,2.5348,2.5269,2.5257,2.526,2.5217,2.5209,2.5166,2.5164,2.5136,2.5082,2.5055,2.4996,2.5008,2.5092,2.4949,2.4946,2.4975,2.5144,2.5184,2.52,2.505,2.5052,2.5053,2.5148,0,2.5596,2.559,2.5509,2.5527,2.5512,2.5411,2.5412,2.5364,2.5313,2.5293,2.5237,2.5217,2.515,2.5132,2.514,2.508,2.5124,2.5073,2.5046,2.5046,2.506,2.5215,2.5258,2.535,2.5159,2.5161,2.5162,0,2.5718,2.5679,2.5694,2.5611,2.5602,2.5605,2.5558,2.5542,2.5485,2.5446,2.5415,2.5347,2.5343,2.5276,2.5268,2.5235,2.522,2.5189,2.5191,2.5183,2.5108,2.5208,2.5378,2.539,2.5179,2.5178,2.5177,0,2.5865,2.5817,2.5818,2.5794,2.5699,2.5702,2.5663,2.5603,2.5582,2.5543,2.5528,2.5491,2.547,2.5442,2.5365,2.5324,2.5366,2.5293,2.5333,2.5335,2.5344,2.5344,2.551,2.534,2.534,2.534,2.534,0,2.599,2.6003,2.5882,2.5883,2.5894,2.5802,2.5816,2.5767,2.5714,2.5704,2.5617,2.561,2.551,2.5491,2.5432,2.5433,2.5426,2.5394,2.5377,2.5399,2.5403,2.5386,2.5376,2.5344,2.5343,2.5342,2.5341,0,2.6155,2.6075,2.607,2.5979,2.5957,2.5969,2.5891,2.5889,2.5831,2.582,2.5812,2.5722,2.5696,2.5617,2.5572,2.5531,2.5549,2.552,2.5568,2.5556,2.5599,2.5595,2.5758,2.5773,2.5598,2.5599,2.5601,0,2.6238,2.6244,2.6154,2.6139,2.6103,2.6082,2.606,2.597,2.595,2.5885,2.589,2.5856,2.5824,2.5787,2.5718,2.5683,2.565,2.5709,2.5644,2.5665,2.5647,2.5646,2.5645,2.5723,2.5725,2.5727,2.5729,0,2.6392,2.6352,2.6322,2.6278,2.6253,2.6215,2.6172,2.6166,2.6065,2.6048,2.6018,2.5993,2.5945,2.5912,2.5865,2.5826,2.576,2.575,2.5757,2.5778,2.5804,2.5787,2.5603,2.5746,2.5744,2.5743,2.5742,2.5741,2.6516,2.6516,2.6451,2.642,2.6378,2.6339,2.6331,2.6272,2.6245,2.6197,2.6147,2.6123,2.6064,2.5994,2.5959,2.5939,2.5904,2.5915,2.5917,2.592,2.5929,2.581,2.5931,2.593,2.593,2.5929,2.5929,0,2.6663,2.6616,2.6589,2.6529,2.6505,2.6445,2.6394,2.6377,2.6356,2.6307,2.6276,2.6241,2.6209,2.6137,2.6098,2.6096,2.6064,2.6088,2.6086,2.6077,2.5965,2.5961,2.6114,2.6114,2.6114,2.6114,2.6113,2.6113,2.6736,2.6732,2.6684,2.6658,2.6611,2.6585,2.656,2.6524,2.6483,2.6448,2.6419,2.6372,2.6314,2.6269,2.6236,2.6216,2.6204,2.6237,2.6207,2.6103,2.6085,2.6069,2.6064,2.6236,2.6237,2.6321,2.6321,2.6322]},{"header":{"parameterUnit":"m.s-1","parameterCategory":1,"la1":30.2991,"la2":30.254,"lo1":-89.0895,"lo2":-89.0444,"dy":0.0017,"dx":0.0017,"nx":28,"ny":28,"refTime":"2025-08-21T09:00:00:Z","depth":0,"parameterNumber":3,"parameterNumberName":"V-component_of_WINDS"},"data":[0,0,0,0,0,0,0,0,0,0,0,0,0,0,0,0,0,0,0,0,0,0,0,0,0,0,0,0,0,0,0,0,0,0,0,0,0,0,0,0,0,0,0,0,0,0,0,0,0,0,0,0,0,0,0,0,0,0,2.9594,2.9595,0,2.9615,2.9615,2.9616,2.954,2.9537,2.9535,2.9533,2.955,2.9552,2.9555,0,0,0,0,0,0,0,0,0,0,0,0,0,2.9485,2.9487,2.9594,2.9595,2.9595,2.9615,2.9615,2.9616,2.954,2.9537,2.9535,2.9532,2.9549,2.9552,2.9555,0,0,0,0,0,0,0,0,0,0,0,0,0,2.9522,2.9488,2.9594,2.956,2.9557,2.9615,2.9615,2.9616,2.9541,2.9537,2.9534,2.9531,2.9548,2.9552,2.9556,2.9647,0,0,2.9567,2.9569,0,0,0,0,0,0,0,0,2.952,2.9526,2.9564,2.9562,2.9559,2.9571,2.9583,2.9626,2.9541,2.9547,2.9533,2.9529,2.9559,2.9562,2.9573,2.9648,2.9648,2.9568,2.957,2.9572,2.9573,0,0,0,0,0,0,0,2.9517,2.9524,2.9602,2.9565,2.9562,2.9542,2.9543,2.9591,2.9572,2.9546,2.954,2.9544,2.9557,2.957,2.9573,2.9649,2.9567,2.9571,2.9573,2.9575,2.98,2.9803,0,0,0,0,0,0,2.952,2.9523,2.9602,2.9603,2.9531,2.9547,2.9548,2.9571,2.9571,2.9568,2.9547,2.9541,2.9565,2.9569,2.9573,2.9681,2.9571,2.9575,2.9577,2.9796,2.98,2.9804,0,0,0,0,0,0,2.9518,2.9528,2.9601,2.9562,2.9569,2.9552,2.9578,2.9573,2.9585,2.9572,2.9568,2.9564,2.9562,2.9568,2.963,2.968,2.9577,2.958,2.9792,2.9797,2.9802,2.9896,0,0,0,0,0,0,2.9515,2.9527,2.9563,2.9563,2.9572,2.9658,2.9581,2.9576,2.9593,2.9585,2.9586,2.9583,2.956,2.9624,2.9633,2.9684,2.9583,2.9787,2.9794,2.9801,2.9888,2.9904,2.9917,0,0,0,0,0,2.9511,2.9587,2.9565,2.9575,2.9616,2.9661,2.9666,2.9639,2.9597,2.9632,2.9623,2.9583,2.9674,2.9631,2.9641,2.9693,2.9784,2.9792,2.98,2.9881,2.9901,2.9917,0,0,0,0,0,0,2.959,2.9586,2.9562,2.964,2.9652,2.9648,2.9691,2.966,2.9683,2.9674,2.9638,2.9639,2.9707,2.9706,2.9659,2.9782,2.9721,2.9732,2.978,2.9798,2.9812,2.981,2.9586,0,0,0,0,0,2.9617,2.9656,2.9649,2.9719,2.9726,2.9708,2.9727,2.9706,2.9716,2.972,2.9715,2.9726,2.9756,2.9777,2.9805,2.9888,2.9887,2.9929,2.9943,2.9955,2.9964,3.0009,3.0027,2.9831,2.9831,2.9831,0,0,2.9672,2.9675,2.9701,2.9735,2.9742,2.9781,2.9713,2.9757,2.9786,2.9726,2.9784,2.9782,2.9791,2.9864,2.9896,2.9865,3.0019,2.9966,2.9976,2.9978,3.0019,3.0038,3.0054,2.9837,2.9836,2.9835,0,0,2.9793,2.9799,2.9858,2.9867,2.9879,2.9867,2.9881,2.9883,2.988,2.9938,2.9895,2.9928,2.9981,2.999,3.0001,3.0128,3.0092,3.0138,3.0214,3.0257,3.0273,3.0286,3.0331,3.0348,3.0147,3.0148,3.0148,0,2.9859,2.9919,2.9892,2.994,2.9956,2.9907,2.9965,2.9975,2.9995,3.0006,2.9972,3.004,3.0042,3.0117,3.0148,3.0159,3.0174,3.0137,3.0273,3.0286,3.0298,3.0341,3.0358,3.0153,3.0152,3.0152,3.0151,0,3.0,3.0042,3.0088,3.0111,3.0132,3.0186,3.0166,3.0191,3.0168,3.0159,3.022,3.0222,3.0249,3.0265,3.0243,3.0337,3.0318,3.0279,3.0217,3.0323,3.0362,3.0378,3.0161,3.0159,3.0157,3.0156,0,0,3.0168,3.0178,3.0195,3.0205,3.0216,3.0247,3.0299,3.0328,3.035,3.0365,3.0407,3.0455,3.042,3.0433,3.0411,3.045,3.055,3.0406,3.0405,3.0432,3.0654,3.0683,3.0702,3.0527,3.053,3.0532,3.0653,0,3.0286,3.0376,3.0355,3.0443,3.0482,3.0436,3.0481,3.0492,3.0485,3.0516,3.0508,3.0543,3.0494,3.0501,3.0538,3.053,3.0594,3.0521,3.0564,3.0566,3.0563,3.0723,3.0753,3.0867,3.0669,3.0671,3.0673,0,3.0436,3.0461,3.0554,3.056,3.0575,3.0616,3.0641,3.0672,3.0683,3.0676,3.0692,3.0663,3.0713,3.0653,3.072,3.0672,3.0688,3.0687,3.0691,3.0693,3.0625,3.0729,3.0903,3.092,3.0697,3.0695,3.0693,0,3.055,3.0605,3.0669,3.0679,3.0688,3.0718,3.0722,3.0731,3.075,3.0772,3.0784,3.0811,3.0825,3.0846,3.0825,3.0783,3.0896,3.0834,3.0891,3.0891,3.0915,3.0914,3.1094,3.0928,3.0927,3.0927,3.0927,0,3.0683,3.0742,3.072,3.0759,3.0823,3.0798,3.0862,3.0861,3.0869,3.0906,3.0868,3.0903,3.0874,3.0906,3.089,3.0949,3.0955,3.095,3.0945,3.0953,3.0954,3.0963,3.0954,3.0932,3.0931,3.093,3.0929,0,3.082,3.0808,3.0874,3.0878,3.0881,3.0928,3.093,3.0966,3.0958,3.1005,3.1015,3.1002,3.1038,3.102,3.1057,3.1046,3.1122,3.1106,3.1119,3.1114,3.1172,3.1167,3.1364,3.1388,3.1207,3.1209,3.121,0,3.0906,3.095,3.096,3.0984,3.0992,3.103,3.105,3.1027,3.1049,3.1067,3.11,3.1134,3.116,3.122,3.1213,3.1241,3.1225,3.1293,3.1229,3.1237,3.1226,3.1223,3.1228,3.1305,3.1307,3.1309,3.131,0,3.1059,3.1052,3.1084,3.1115,3.1141,3.1163,3.1181,3.1202,3.118,3.1207,3.1245,3.1265,3.1305,3.1338,3.1364,3.1367,3.1335,3.133,3.1345,3.1353,3.1359,3.1356,3.1153,3.1325,3.1324,3.1323,3.1322,3.1321,3.1173,3.1211,3.1225,3.1262,3.1274,3.1293,3.1327,3.1325,3.1357,3.1389,3.1373,3.1417,3.1428,3.1459,3.1467,3.1501,3.1474,3.1495,3.15,3.1506,3.1514,3.1355,3.1505,3.1505,3.1504,3.1504,3.1504,0,3.1324,3.1332,3.1366,3.1395,3.1425,3.1395,3.1415,3.144,3.1481,3.1495,3.1522,3.1566,3.1599,3.1596,3.1626,3.1654,3.164,3.1662,3.1659,3.1661,3.1536,3.152,3.1673,3.1673,3.1673,3.1673,3.1673,3.1673,3.1406,3.1469,3.1464,3.1533,3.1539,3.1584,3.1598,3.1615,3.1627,3.1679,3.1707,3.1705,3.1712,3.1743,3.1772,3.177,3.1783,3.1811,3.1803,3.1686,3.1669,3.1653,3.1638,3.1814,3.1814,3.1925,3.1926,3.1927]}]]